Pian Rosa, Italy

4:11 PM CEST on June 24, 2017 (GMT +0200)
Pian Rosa

Weather History for LIMH - August, 2013

Change the Weather History Date:

Sunday, August 11, 2013

  Actual Average Record
Temperature  
Mean Temperature 36 °F -  
Max Temperature 39 °F 37 °F 57 °F (1998)
Min Temperature 33 °F 28 °F 21 °F (2016)
Degree Days  
Heating Degree Days 29    
Moisture  
Dew Point 19 °F    
Average Humidity 46    
Maximum Humidity 65    
Minimum Humidity 17    
Precipitation  
Precipitation 0.00 in - - ()
Sea Level Pressure  
Sea Level Pressure 30.47 in    
Wind  
Wind Speed 6 mph ()    
Max Wind Speed 13 mph    
Max Gust Speed -    
Visibility 6.1 miles    
Events      
Averages and records for this station are not official NWS values.
T = Trace of Precipitation, MM = Missing Value Source: Averaged Metar Reports

Daily Weather History Graph

Daily Weather History Graph

Search for Another Location

Airport or City:

Trip Planner

Search our weather history database for the weather conditions in past years. The results will help you decide how hot, cold, wet, or windy it might be!

Date:

Astronomy

Aug. 11, 2013 Rise Set
Actual Time 6:23 AM CEST 8:43 PM CEST
Civil Twilight 5:50 AM CEST 9:16 PM CEST
Nautical Twilight 5:09 AM CEST 9:58 PM CEST
Astronomical Twilight 4:22 AM CEST 10:44 PM CEST
Moon 11:13 AM CEST (8/11) 10:30 PM CEST (8/11)
Length of Visible Light 15h 26m
Length of Day
14h 20m
Waxing Crescent, 19% of the Moon is Illuminated
Aug 11
Waxing Crescent
Aug 14
First Quarter
Aug 21
Full
Aug 28
Last Quarter
Sep 5
New

Hourly Weather History & Observations

Time (CEST) Temp. Windchill Dew Point Humidity Pressure Visibility Wind Dir Wind Speed Gust Speed Precip Events Conditions
12:55 AM 33.8 °F 29.6 °F 12.2 °F 41% 30.48 in - WSW 4.6 mph - N/A   Clear
1:55 AM 33.8 °F - 15.8 °F 48% 30.48 in - North - - N/A   Clear
2:00 AM 34 °F - 15 °F 32%  in 7 mi Calm Calm - -  
2:55 AM 33.8 °F 27.7 °F 23.0 °F 65% 30.48 in - WSW 6.9 mph - N/A   Clear
3:55 AM 33.8 °F 28.6 °F 21.2 °F 60% 30.45 in - SW 5.8 mph - N/A   Clear
4:55 AM 33.8 °F 27.7 °F 21.2 °F 60% 30.45 in - SW 6.9 mph - N/A   Clear
5:00 AM 34 °F - 21 °F 46%  in 7 mi SW 6.9 mph - -  
5:55 AM 33.8 °F 26.4 °F 19.4 °F 56% 30.45 in - SW 9.2 mph - N/A   Clear
6:55 AM 35.6 °F 31.7 °F 17.6 °F 48% 30.45 in - WNW 4.6 mph - N/A   Clear
7:55 AM 35.6 °F 30.7 °F 14.0 °F 41% 30.45 in - ENE 5.8 mph - N/A   Clear
8:00 AM 36 °F - 14 °F 26%  in 44 mi ENE 5.8 mph - -   Partly Cloudy
8:55 AM 39.2 °F 35.0 °F 12.2 °F 33% 30.45 in - ENE 5.8 mph - N/A   Clear
9:55 AM 39.2 °F 34.2 °F 12.2 °F 33% 30.45 in - ENE 6.9 mph - N/A   Clear
10:55 AM 39.2 °F 35.0 °F 14.0 °F 36% 30.48 in - NNE 5.8 mph - N/A   Clear
11:00 AM 39 °F - 15 °F 24%  in 47 mi NNE 5.8 mph - -  
11:55 AM 37.4 °F 30.3 °F 14.0 °F 38% 30.48 in - NE 10.4 mph - N/A   Clear
12:55 PM 37.4 °F 30.8 °F 10.4 °F 33% 30.48 in - NE 9.2 mph - N/A   Clear
1:55 PM 39.2 °F 33.6 °F 8.6 °F 28% 30.48 in - NE 8.1 mph - N/A   Clear
2:00 PM 38 °F - 9 °F 17%  in 37 mi NE 8.1 mph - -  
2:55 PM 39.2 °F 33.6 °F 21.2 °F 49% 30.48 in - NE 8.1 mph - N/A   Clear
3:55 PM 39.2 °F 35.0 °F 24.8 °F 56% 30.48 in 5.0 mi North 5.8 mph - N/A   Scattered Clouds
4:55 PM 39.2 °F 35.0 °F 24.8 °F 56% 30.48 in 5.0 mi NE 5.8 mph - N/A   Scattered Clouds
5:00 PM 39 °F - 25 °F 46%  in 5 mi NE 5.8 mph - -   Partly Cloudy
5:55 PM 39.2 °F 34.2 °F 26.6 °F 61% 30.48 in 6.2 mi ENE 6.9 mph - N/A   Scattered Clouds
6:55 PM 39.2 °F 35.0 °F 26.6 °F 61% 30.48 in 6.2 mi NE 5.8 mph - N/A   Partly Cloudy
7:55 PM 39.2 °F 31.6 °F 26.6 °F 61% 30.48 in 6.2 mi NE 12.7 mph - N/A   Partly Cloudy
8:00 PM 38 °F - 27 °F 52%  in 31 mi NE 12.7 mph - -   Scattered Clouds
8:55 PM 39.2 °F 32.5 °F 24.8 °F 56% 30.48 in - NNE 10.4 mph - N/A   Clear
9:55 PM 37.4 °F 32.1 °F 23.0 °F 56% 30.51 in - NE 6.9 mph - N/A   Clear
10:55 PM 37.4 °F 30.8 °F 24.8 °F 60% 30.51 in - NE 9.2 mph - N/A   Clear
11:00 PM 37 °F - 24 °F 47%  in 7 mi NE 9.2 mph - -  
11:55 PM 37.4 °F - 24.8 °F 60% 30.51 in - Calm Calm - N/A   Clear